, SD

(GMT )
Rapid City

Weather History for KRAP - May, 2014

Change the Weather History Date:

Saturday, May 3, 2014

  Actual Average Record
Temperature  
Mean Temperature 47 °F 51 °F  
Max Temperature 56 °F 64 °F 93 °F (1952)
Min Temperature 38 °F 38 °F 19 °F (1954)
Degree Days  
Heating Degree Days 18 14  
Month to date heating degree days 50 44  
Since 1 July heating degree days 7342 6773  
Cooling Degree Days 0 0  
Month to date cooling degree days 0 0  
Year to date cooling degree days 0 2  
Moisture  
Dew Point 40 °F    
Average Humidity 77    
Maximum Humidity 92    
Minimum Humidity 61    
Precipitation  
Precipitation T in 0.09 in 0.76 in (1969)
Month to date precipitation T 0.28  
Year to date precipitation 3.85 3.75  
Snow  
Snow 0.00 in 0.10 in 3.30 in (1991)
Month to date snowfall 0.0 0.3  
Since 1 July snowfall 63.7 40.3  
Snow Depth 0.00 in    
Sea Level Pressure  
Sea Level Pressure 29.96 in    
Wind  
Wind Speed 9 mph (NNE)    
Max Wind Speed 20 mph    
Max Gust Speed 24 mph    
Visibility 10 miles    
Events Rain    
T = Trace of Precipitation, MM = Missing Value Source: NWS Daily Summary

Daily Weather History Graph

Daily Weather History Graph

Search for Another Location

Airport or City:

Trip Planner

Search our weather history database for the weather conditions in past years. The results will help you decide how hot, cold, wet, or windy it might be!

Date:

Astronomy

May. 03, 2014 Rise Set
Actual Time 5:40 AM MDT 7:58 PM MDT
Civil Twilight 5:08 AM MDT 8:30 PM MDT
Nautical Twilight 4:29 AM MDT 9:09 PM MDT
Astronomical Twilight 3:45 AM MDT 9:54 PM MDT
Moon 9:10 AM MDT (5/3) No Moon Set
Length of Visible Light 15h 21m
Length of Day
14h 17m
Waxing Crescent, 20% of the Moon is Illuminated
May 3
Waxing Crescent
May 6
First Quarter
May 14
Full
May 21
Last Quarter
May 28
New

Hourly Weather History & Observations

Time (MDT) Temp. Windchill Dew Point Humidity Pressure Visibility Wind Dir Wind Speed Gust Speed Precip Events Conditions
12:49 AM 41.0 °F 39.0 °F 37.4 °F 87% 29.94 in 10.0 mi NNW 3.5 mph - N/A   Scattered Clouds
12:52 AM 39.9 °F 36.7 °F 37.0 °F 89% 29.96 in 10.0 mi NNW 4.6 mph - N/A   Scattered Clouds
1:52 AM 43.0 °F 37.7 °F 39.0 °F 86% 29.96 in 10.0 mi North 9.2 mph - N/A   Scattered Clouds
2:52 AM 43.0 °F 38.8 °F 39.0 °F 86% 29.97 in 10.0 mi NW 6.9 mph - 0.00 in Rain Light Rain
3:52 AM 39.9 °F 36.7 °F 37.0 °F 89% 29.97 in 10.0 mi NW 4.6 mph - 0.00 in   Scattered Clouds
4:52 AM 42.1 °F 37.1 °F 37.9 °F 85% 29.94 in 10.0 mi North 8.1 mph - N/A   Partly Cloudy
5:52 AM 39.9 °F 35.1 °F 37.0 °F 89% 29.93 in 10.0 mi North 6.9 mph - N/A   Clear
6:52 AM 42.1 °F 39.2 °F 37.9 °F 85% 29.95 in 10.0 mi West 4.6 mph - N/A   Clear
7:52 AM 46.9 °F - 41.0 °F 80% 29.96 in 10.0 mi Calm Calm - N/A   Clear
8:52 AM 50.0 °F - 42.1 °F 74% 29.95 in 10.0 mi ENE 6.9 mph - N/A   Clear
9:32 AM 52.0 °F - 42.1 °F 69% 29.93 in 10.0 mi ENE 4.6 mph - N/A   Mostly Cloudy
9:52 AM 50.0 °F - 39.9 °F 68% 29.96 in 10.0 mi Calm Calm - N/A   Overcast
10:52 AM 52.0 °F - 39.9 °F 63% 29.98 in 10.0 mi North 5.8 mph - N/A   Overcast
11:52 AM 53.1 °F - 41.0 °F 64% 29.98 in 10.0 mi North 9.2 mph - N/A   Overcast
12:31 PM 54.0 °F - 41.0 °F 62% 29.94 in 10.0 mi North 5.8 mph - N/A   Overcast
12:52 PM 54.0 °F - 41.0 °F 62% 29.96 in 10.0 mi NNE 9.2 mph - N/A   Overcast
1:52 PM 55.0 °F - 43.0 °F 64% 29.96 in 10.0 mi NE 6.9 mph - N/A   Overcast
2:44 PM 55.0 °F - 42.1 °F 62% 29.94 in 10.0 mi North 10.4 mph - N/A   Overcast
2:52 PM 55.9 °F - 43.0 °F 62% 29.95 in 10.0 mi North 11.5 mph - N/A   Overcast
3:52 PM 54.0 °F - 43.0 °F 66% 29.96 in 10.0 mi NNE 16.1 mph - N/A   Overcast
4:52 PM 54.0 °F - 43.0 °F 66% 29.95 in 10.0 mi NE 17.3 mph - N/A   Overcast
5:52 PM 53.1 °F - 43.0 °F 69% 29.95 in 10.0 mi NNE 15.0 mph - N/A   Overcast
6:52 PM 51.1 °F - 42.1 °F 71% 29.95 in 10.0 mi NE 13.8 mph - N/A   Partly Cloudy
7:49 PM 50.0 °F - 41.0 °F 71% 29.94 in 10.0 mi NE 12.7 mph - N/A   Overcast
7:52 PM 50.0 °F - 41.0 °F 71% 29.96 in 10.0 mi NE 12.7 mph - N/A   Overcast
8:52 PM 48.9 °F - 41.0 °F 74% 29.98 in 10.0 mi NE 11.5 mph - N/A   Overcast
9:52 PM 48.0 °F - 39.9 °F 74% 29.99 in 10.0 mi ENE 11.5 mph - N/A   Overcast
10:52 PM 46.0 °F 40.2 °F 39.0 °F 76% 29.99 in 10.0 mi East 12.7 mph - N/A   Overcast
11:52 PM 46.0 °F 40.6 °F 37.0 °F 71% 29.99 in 10.0 mi East 11.5 mph - N/A   Overcast